DELTA 1 DEB, 7161

Orbit data source: Space-Track

DELTA 1 DEB, 7161 is space debris in SSO originally from a launch on Tue, 06 Nov 1973 UTC launched from the Air Force Western Test Range (AFWTR). Debris objects in space refer to the collection of defunct objects orbiting the Earth. Examples of debris include non-operational satellites, rocket bodies, and fragments generated from explosions, collisions, or faulty payload assembly.

Loading next visibility...
Identifier
7161, 1973-086DZ
Orbit
SSO
Country
Flag of USUS
Related business
Manufacturer
Unknown
Mission
Spacecraft
Bus & Motor
Unknown
Mass
Unknown
Launch date (UTC)
1973-11-06 (53 years ago)
Launch vehicle
Unknown
Launch site
Air Force Western Test Range (AFWTR)
Object type
Payload
Rocket body
Debris
Shape & HBR
Unknown shape, 0.2 m
Radar Cross Section
Medium (>0.1 m² and <1 m²)

Expand to show TLE details & history
Last TLE update: 9 hours ago

TLE from 9 hours ago
0 DELTA 1 DEB
1 07161U 73086DZ  26255.30543317 -.00000024  00000-0  16443-3 0  9993
2 07161 102.2031 284.7968 0014487 322.4414  49.8872 12.41260244393609
Epoch: 2026-09-12T07:19Z
TLE epoch observation values (Epoch: 2026-09-12T07:19:49.425Z)
Latitude
12.13395°
Longitude
-179.12747°
Altitude
1,495.714 km
Speed
7.121 km/s
True Right ascension
18h 48m 34s
True Declination
12° 04' 12"
Sunlit
Object was in daylight at epoch
Visualization orbit readout
Latitude
Unknown
Longitude
Unknown
Altitude
Unknown
Speed
Unknown
Apparent Right ascension
Unknown
Apparent Declination
Unknown
Sunlit
N/A
Visualization observer readout
Local Sidereal Time
08:56:21
Azimuth
Unknown
Elevation
Unknown
Doppler factor
Unknown
Orbital elements
Apogee altitude
1,510.262 km
Perigee altitude
1,487.439 km
Semi-major axis
7,876.988 km
Eccentricity
0.00145
Inclination
102.2031°
RAAN
284.7968°
Arg. of periapsis
322.4414°
True anomaly
50.01431°
Mean anomaly
49.8872°
Eccentric anomaly
49.95074°
Mean motion
3.10458 °/min
Orbital period
115.96 mins
BSTAR
0.00016443
Loading maneuver chart data...
Computing Atmospheric mass density...
Loading historical data...
Loading historical data...
Loading historical data...
Loading historical data...
Loading historical data...
Loading historical data...
Loading historical data...

Documentation

Showing up to 5 results
|